Weather Roundup
Issued by NWS Springfield, MO

Home | Current Version | Previous Version | Text Only | Print | Product List | Glossary On
Versions: 1 2 3 4 5 6 7 8 9 10 11 12 13 14 15 16 17 18 19 20 21 22 23 24 25 26 27 28 29 30 31 32 33 34 35 36 37 38 39 40 41 42 43 44 45 46 47 48 49 50
000
NZUS99 KSGF 050607
HRRSGF

HOURLY WEATHER
NATIONAL WEATHER SERVICE SPRINGFIELD MO
100 AM CDT SAT SEP 05 2015

......SGF CWA......

CITY           SKY/WX    TMP DP  RH WIND       PRES   REMARKS
SPRINGFIELD    CLEAR     77  67  71 SE10      30.03S
6HR MIN TEMP:  76; 6HR MAX TEMP:  86;

JOPLIN         CLEAR     78  69  73 SE7       30.00S
6HR MIN TEMP:  78; 6HR MAX TEMP:  85;

WEST PLAINS    CLEAR     71  68  90 CALM      30.09S
6HR MIN TEMP:  70; 6HR MAX TEMP:  84;

ROLLA          CLEAR     74  68  81 SE7       30.05S
6HR MIN TEMP:  74; 6HR MAX TEMP:  85;

OSAGE BEACH    CLEAR     73  68  83 CALM      30.04S
BRANSON        CLEAR     75  66  73 SE5       30.06S

......SURROUNDING SGF CWA......

CITY           SKY/WX    TMP DP  RH WIND       PRES   REMARKS
CHANUTE        CLEAR     74  70  87 SE6       29.98S
PARSONS        CLEAR     76  71  85 SE3       29.99S
COFFEYVILLE    CLEAR     75  70  84 SE3       29.97S
EMPORIA        CLEAR     74  69  85 S9        29.98R
GROVE OK       CLEAR     73  72  94 CALM      30.00S
ROGERS AR      CLEAR     75  71  87 E7        30.04S
SILOAM SPRINGS CLEAR     73  64  73 E5        30.01S
HARRISON AR    CLEAR     72  69  90 CALM      30.06S
NEAR YELLVILLE CLEAR     73  64  73 CALM      30.03S

......KANSAS AND MISSOURI......

CITY           SKY/WX    TMP DP  RH WIND       PRES   REMARKS
KANSAS CTY INT CLEAR     74  68  81 SE7       29.99R
DOWNTOWN KC    CLEAR     80  69  69 S6        29.98R
COLUMBIA       CLEAR     75  70  84 SE7       30.04R
SEDALIA        CLEAR     74  69  85 S8        30.03S
ST JOSEPH      CLEAR     73  69  87 S7        29.97S
ST LOUIS       CLEAR     79  68  69 SE5       30.05S
SPIRIT OF STL  CLEAR     71  70  96 CALM      30.03S
KIRKSVILLE     CLEAR     73  67  81 S6        30.03S
WICHITA        CLEAR     77  68  73 SE10      29.95S
TOPEKA         CLEAR     78  69  73 S6        29.96S
OLATHE         CLEAR     73  68  84 SE6       29.99S

......TENNESSEE......

CITY           SKY/WX    TMP DP  RH WIND       PRES   REMARKS
MEMPHIS        CLEAR     82  72  71 E3        30.02S
NASHVILLE      CLEAR     74  67  78 CALM      30.06S

......ARKANSAS.......

CITY           SKY/WX    TMP DP  RH WIND       PRES   REMARKS
FAYETTEVILLE   CLEAR     69  69 100 CALM      30.03S
FT SMITH       CLEAR     78  72  81 NE5       29.97S
LITTLE ROCK    CLEAR     79  70  74 NE5       30.00S

......OKLAHOMA.......

CITY           SKY/WX    TMP DP  RH WIND       PRES   REMARKS
TULSA          PTCLDY    78  72  81 SE7       29.94F
PONCA CITY     CLEAR     81  69  67 SE13      29.95R
MCALESTER      MOCLDY    77  70  79 SE6       29.97S
OKLAHOMA CITY  PTCLDY    75  67  76 SE8       29.96S

......IOWA............

CITY           SKY/WX    TMP DP  RH WIND       PRES   REMARKS
DES MOINES     CLOUDY    79  69  71 S7        29.96S
QUAD CITIES    FAIR      74  69  85 CALM      30.01S

......ILLINOIS........

CITY           SKY/WX    TMP DP  RH WIND       PRES   REMARKS
QUINCY         CLEAR     78  69  73 S7        30.03S
CHICAGO        PTCLDY    72  67  84 E3        30.04F




USA.gov is the U.S. government's official web portal to all federal, state and local government web resources and services.